SBIRS GEO-6 (USA 336)

Last updated on Tue Sep 22 2026 00:03:15 GMT+0000 (Coordinated Universal Time)

1 53355U 22092A 26264.16433817 -.00000296 00000+0 00000+0 0 9995 2 53355 3.1068 319.1904 0001952 213.6754 25.3515 1.00271843 15196
UTC large
Height (km)
Speed (km/s)
/
Latitude / Longitude
Inclination (degrees)
Orbital Period (minutes)
Azimuth
Elevation
Range (km)
Doppler Factor

Next 0 passes for location: London (51.5072 / 0.1276)

No passes found over London.
SBIRS GEO-6 (USA 336)